Change the Weather History Date:

Tuesday, October 9, 2012

  Actual Average Record
Temperature  
Mean Temperature 47 °F 37 °F  
Max Temperature 53 °F 45 °F 58 °F (2006)
Min Temperature 40 °F 29 °F 11 °F (1981)
Degree Days  
Heating Degree Days 18 28  
Month to date heating degree days 158 236  
Since 1 July heating degree days 1481 1371  
Cooling Degree Days 0    
Month to date cooling degree days 0  
Year to date cooling degree days 0  
Moisture  
Dew Point 45 °F    
Average Humidity 0    
Maximum Humidity 0    
Minimum Humidity 0    
Precipitation  
Precipitation 0.02 in 0.08 in 1.31 in (2008)
Month to date precipitation 1.50 0.74  
Year to date precipitation 21.55 15.53  
Snow  
Snow 0.00 in 0.00 in 1.20 in (1948)
Month to date snowfall 0.0 0.2  
Since 1 July snowfall T 0.3  
Since 1 September snowfall 0.0 0.3  
Snow Depth 0.00 in    
Sea Level Pressure  
Sea Level Pressure 30.09 in    
Wind  
Wind Speed 5 mph (North)    
Max Wind Speed 14 mph    
Max Gust Speed 17 mph    
Visibility 5 miles    
Events Rain    
T = Trace of Precipitation, MM = Missing Value Source: NWS Daily Summary

Daily Weather History Graph

Daily Weather History Graph

Search for Another Location

Airport or City:

Trip Planner

Search our weather history database for the weather conditions in past years. The results will help you decide how hot, cold, wet, or windy it might be!

Date:

Astronomy

Oct. 09, 2012 Rise Set
Actual Time 8:51 AM AKDT 7:35 PM AKDT
Civil Twilight 8:10 AM AKDT 8:15 PM AKDT
Nautical Twilight 7:24 AM AKDT 9:01 PM AKDT
Astronomical Twilight 6:37 AM AKDT 9:48 PM AKDT
Moon 1:20 AM AKDT (10/9) 5:18 PM AKDT (10/9)
Length of Visible Light 12h 04m
Length of Day
10h 44m
Waning Crescent, 35% of the Moon is Illuminated
Oct 9
Waning Crescent
Oct 15
New
Oct 21
First Quarter
Oct 29
Full
Nov 6
Last Quarter

Hourly Weather History & Observations

Time (AKDT) Temp. Windchill Dew Point Humidity Pressure Visibility Wind Dir Wind Speed Gust Speed Precip Events Conditions
12:54 AM 46.0 °F 44.8 °F 45.0 °F 96% 30.13 in 10.0 mi North 3.5 mph - N/A   Overcast
1:42 AM 46.4 °F - 44.6 °F 93% 30.13 in 10.0 mi Calm Calm - N/A   Scattered Clouds
1:54 AM 46.0 °F - 45.0 °F 96% 30.14 in 10.0 mi Calm Calm - N/A   Mostly Cloudy
2:54 AM 45.0 °F 43.5 °F 45.0 °F 100% 30.14 in 6.0 mi West 3.5 mph - N/A   Mostly Cloudy
3:20 AM 44.6 °F 42.2 °F 44.6 °F 100% 30.14 in 4.0 mi WSW 4.6 mph - N/A   Overcast
3:54 AM 45.0 °F 43.5 °F 45.0 °F 100% 30.14 in 4.0 mi WSW 3.5 mph - N/A   Overcast
4:54 AM 45.0 °F 43.5 °F 45.0 °F 100% 30.14 in 3.0 mi WSW 3.5 mph - N/A   Overcast
5:47 AM 44.6 °F - 44.6 °F 100% 30.13 in 2.5 mi Calm Calm - 0.01 in   Overcast
5:54 AM 45.0 °F - 45.0 °F 100% 30.14 in 3.0 mi Calm Calm - 0.01 in   Overcast
6:21 AM 44.6 °F - 44.6 °F 100% 30.13 in 3.0 mi Calm Calm - N/A   Overcast
6:54 AM 45.0 °F - 45.0 °F 100% 30.13 in 3.0 mi Calm Calm - N/A   Overcast
7:54 AM 45.0 °F - 45.0 °F 100% 30.12 in 3.0 mi Calm Calm - 0.01 in   Overcast
8:08 AM 44.6 °F - 44.6 °F 100% 30.12 in 2.5 mi Calm Calm - N/A   Overcast
8:27 AM 44.6 °F - 44.6 °F 100% 30.12 in 3.0 mi Calm Calm - N/A   Overcast
8:38 AM 44.6 °F - 44.6 °F 100% 30.12 in 3.0 mi Calm Calm - N/A   Overcast
8:54 AM 45.0 °F - 45.0 °F 100% 30.12 in 2.5 mi Calm Calm - N/A   Overcast
9:03 AM 44.6 °F - 44.6 °F 100% 30.12 in 1.0 mi Calm Calm - 0.00 in   Drizzle
9:54 AM 45.0 °F - 45.0 °F 100% 30.12 in 2.0 mi Calm Calm - 0.00 in   Light Drizzle
10:16 AM 44.6 °F - 44.6 °F 100% 30.11 in 2.5 mi Calm Calm - 0.00 in   Light Drizzle
10:54 AM 46.0 °F - 45.0 °F 96% 30.12 in 2.5 mi Calm Calm - 0.00 in   Light Drizzle
11:54 AM 46.9 °F - 46.0 °F 97% 30.13 in 2.5 mi Calm Calm - 0.00 in   Light Drizzle
12:33 PM 48.2 °F - 46.4 °F 93% 30.12 in 5.0 mi NNE 5.8 mph - 0.00 in   Overcast
12:54 PM 48.0 °F - 46.0 °F 93% 30.11 in 10.0 mi NNE 5.8 mph - 0.00 in   Overcast
1:54 PM 48.9 °F - 46.0 °F 90% 30.10 in 10.0 mi North 4.6 mph - N/A   Overcast
2:54 PM 50.0 °F - 46.0 °F 86% 30.09 in 10.0 mi NE 5.8 mph - N/A   Overcast
3:41 PM 51.8 °F - 46.4 °F 82% 30.08 in 10.0 mi NNE 8.1 mph - N/A   Overcast
3:54 PM 50.0 °F - 46.0 °F 86% 30.08 in 10.0 mi North 6.9 mph - N/A   Overcast
4:54 PM 51.1 °F - 46.0 °F 83% 30.05 in 10.0 mi NNE 9.2 mph - N/A   Mostly Cloudy
5:21 PM 51.8 °F - 46.4 °F 82% 30.05 in 10.0 mi North 6.9 mph - N/A   Scattered Clouds
5:54 PM 50.0 °F - 46.9 °F 89% 30.05 in 10.0 mi NNE 11.5 mph - N/A   Scattered Clouds
6:23 PM 48.2 °F - 46.4 °F 93% 30.05 in 10.0 mi North 10.4 mph - N/A   Mostly Cloudy
6:51 PM 46.4 °F 40.4 °F 46.4 °F 100% 30.04 in 2.5 mi North 13.8 mph - N/A   Overcast
6:54 PM 46.9 °F - 46.0 °F 97% 30.04 in 1.8 mi North 12.7 mph - N/A   Overcast
7:42 PM 44.6 °F 39.2 °F 44.6 °F 100% 30.03 in 0.8 mi North 10.4 mph - N/A   Mist
7:54 PM 45.0 °F 39.7 °F 45.0 °F 100% 30.04 in 1.0 mi North 10.4 mph - N/A   Mist
8:54 PM 43.0 °F 38.2 °F 43.0 °F 100% 30.03 in 4.0 mi North 8.1 mph - N/A   Mostly Cloudy
9:32 PM 42.8 °F 39.3 °F 42.8 °F 100% 30.03 in 2.0 mi North 5.8 mph - N/A   Mostly Cloudy
9:54 PM 42.1 °F 37.7 °F 42.1 °F 100% 30.03 in 3.0 mi North 6.9 mph - N/A   Mostly Cloudy
10:28 PM 41.0 °F 35.8 °F 41.0 °F 100% 30.03 in 7.0 mi North 8.1 mph - N/A   Scattered Clouds
10:54 PM 39.9 °F 34.5 °F 39.9 °F 100% 30.03 in 10.0 mi North 8.1 mph - N/A   Scattered Clouds
11:54 PM 39.9 °F 33.9 °F 39.9 °F 100% 30.02 in 10.0 mi North 9.2 mph - N/A   Partly Cloudy